| time (UTC) | temp F | wind direction | speed knots | gust knots | rain 1hr in | rain 24hr in | rain mn in | humidity % | barometer mb |
| 20260902015028 | 55 | 214 | 1.7 | 3.5 | 0.00 | 0.00 | 0.00 | 88 | 1023.0 |
| 20260902014027 | 55 | 234 | 2.6 | 5.2 | 0.00 | 0.00 | 0.00 | 88 | 1022.9 |
| 20260902013028 | 55 | 237 | 3.5 | 5.2 | 0.00 | 0.00 | 0.00 | 88 | 1023.0 |
| 20260902011032 | 54 | 233 | 2.6 | 5.2 | 0.00 | 0.00 | 0.00 | 89 | 1023.0 |
| 20260902010033 | 54 | 233 | 2.6 | 5.2 | 0.00 | 0.00 | 0.00 | 91 | 1023.1 |
| 20260902005036 | 54 | 237 | 2.6 | 4.3 | 0.00 | 0.00 | 0.00 | 91 | 1023.1 |
| 20260902004035 | 54 | 228 | 1.7 | 3.5 | 0.00 | 0.00 | 0.00 | 91 | 1023.1 |
| 20260902003036 | 53 | 235 | 2.6 | 5.2 | 0.00 | 0.00 | 0.00 | 92 | 1023.2 |
| 20260902002033 | 53 | 240 | 3.5 | 4.3 | 0.00 | 0.00 | 0.00 | 93 | 1023.1 |
| 20260902000045 | 53 | 240 | 2.6 | 4.3 | 0.00 | 0.00 | 0.00 | 92 | 1023.0 |
| 20260901235041 | 53 | 240 | 2.6 | 4.3 | 0.00 | 0.00 | 0.00 | 92 | 1023.1 |
| 20260901234047 | 54 | 240 | 2.6 | 4.3 | 0.00 | 0.00 | 0.00 | 91 | 1023.1 |
| 20260901233046 | 54 | 226 | 1.7 | 3.5 | 0.00 | 0.00 | 0.00 | 90 | 1023.1 |
| 20260901232046 | 55 | 200 | 0.9 | 2.6 | 0.00 | 0.00 | 0.00 | 89 | 1023.1 |
| 20260901231042 | 55 | 242 | 2.6 | 4.3 | 0.00 | 0.00 | 0.00 | 89 | 1023.2 |
| 20260901230046 | 55 | 243 | 2.6 | 5.2 | 0.00 | 0.00 | 0.00 | 89 | 1023.2 |
| 20260901225046 | 55 | 243 | 2.6 | 5.2 | 0.00 | 0.00 | 0.00 | 89 | 1023.3 |
| 20260901224044 | 55 | 248 | 2.6 | 4.3 | 0.00 | 0.00 | 0.00 | 89 | 1023.3 |
| 20260901223042 | 55 | 235 | 1.7 | 4.3 | 0.00 | 0.00 | 0.00 | 88 | 1023.3 |
| 20260901222041 | 55 | 235 | 1.7 | 4.3 | 0.00 | 0.00 | 0.00 | 87 | 1023.2 |
| 20260901221044 | 56 | 245 | 2.6 | 5.2 | 0.00 | 0.00 | 0.00 | 86 | 1023.3 |
| 20260901220041 | 57 | 243 | 2.6 | 4.3 | 0.00 | 0.00 | 0.00 | 84 | 1023.3 |
| 20260901214040 | 58 | 248 | 2.6 | 4.3 | 0.00 | 0.00 | 0.00 | 81 | 1023.4 |
| 20260901213041 | 59 | 256 | 2.6 | 4.3 | 0.00 | 0.00 | 0.00 | 80 | 1023.4 |
| 20260901212041 | 59 | 257 | 3.5 | 5.2 | 0.00 | 0.00 | 0.00 | 78 | 1023.4 |
| 20260901211040 | 60 | 257 | 3.5 | 5.2 | 0.00 | 0.00 | 0.00 | 76 | 1023.4 |
| 20260901210040 | 61 | 252 | 3.5 | 6.1 | 0.00 | 0.00 | 0.00 | 75 | 1023.4 |
| 20260901205037 | 61 | 256 | 4.3 | 7.8 | 0.00 | 0.00 | 0.00 | 75 | 1023.5 |
| 20260901204039 | 61 | 256 | 4.3 | 7.8 | 0.00 | 0.00 | 0.00 | 75 | 1023.4 |
| 20260901203037 | 61 | 247 | 3.5 | 7.8 | 0.00 | 0.00 | 0.00 | 75 | 1023.3 |
| 20260901202042 | 61 | 245 | 3.5 | 6.1 | 0.00 | 0.00 | 0.00 | 76 | 1023.2 |
| 20260901201038 | 60 | 243 | 2.6 | 5.2 | 0.00 | 0.00 | 0.00 | 76 | 1023.2 |
| 20260901200039 | 59 | 246 | 3.5 | 6.1 | 0.00 | 0.00 | 0.00 | 78 | 1023.3 |
| 20260901195036 | 59 | 248 | 3.5 | 6.1 | 0.00 | 0.00 | 0.00 | 78 | 1023.3 |
| 20260901194035 | 59 | 249 | 3.5 | 5.2 | 0.00 | 0.00 | 0.00 | 77 | 1023.2 |
| 20260901193034 | 59 | 246 | 3.5 | 5.2 | 0.00 | 0.00 | 0.00 | 77 | 1023.0 |
| 20260901192038 | 59 | 246 | 3.5 | 5.2 | 0.00 | 0.00 | 0.00 | 76 | 1022.9 |
| 20260901191038 | 60 | 246 | 3.5 | 5.2 | 0.00 | 0.00 | 0.00 | 75 | 1022.9 |
| 20260901190038 | 60 | 243 | 3.5 | 5.2 | 0.00 | 0.00 | 0.00 | 74 | 1022.9 |
| 20260901185036 | 61 | 241 | 3.5 | 6.1 | 0.00 | 0.00 | 0.00 | 73 | 1022.8 |
| 20260901184028 | 61 | 241 | 2.6 | 4.3 | 0.00 | 0.00 | 0.00 | 71 | 1022.7 |
| 20260901183033 | 62 | 243 | 2.6 | 4.3 | 0.00 | 0.00 | 0.00 | 70 | 1022.6 |
| 20260901182037 | 63 | 239 | 2.6 | 5.2 | 0.00 | 0.00 | 0.00 | 68 | 1022.6 |
| 20260901181034 | 63 | 241 | 2.6 | 4.3 | 0.00 | 0.00 | 0.00 | 66 | 1022.6 |
| 20260901180037 | 64 | 244 | 3.5 | 5.2 | 0.00 | 0.00 | 0.00 | 64 | 1022.6 |
| 20260901175034 | 65 | 244 | 3.5 | 5.2 | 0.00 | 0.00 | 0.00 | 61 | 1022.5 |
| 20260901174035 | 66 | 247 | 3.5 | 7.0 | 0.00 | 0.00 | 0.00 | 59 | 1022.5 |
| 20260901172029 | 68 | 226 | 4.3 | 8.7 | 0.00 | 0.00 | 0.00 | 57 | 1022.5 |
| 20260901171030 | 68 | 249 | 5.2 | 9.6 | 0.00 | 0.00 | 0.00 | 56 | 1022.4 |
| 20260901165033 | 69 | 12 | 4.3 | 8.7 | 0.00 | 0.00 | 0.00 | 55 | 1022.3 |
| 20260901164030 | 69 | 255 | 5.2 | 10.4 | 0.00 | 0.00 | 0.00 | 55 | 1022.2 |
| 20260901162029 | 69 | 258 | 3.5 | 7.0 | 0.00 | 0.00 | 0.00 | 56 | 1022.1 |
| 20260901161030 | 68 | 100 | 2.6 | 7.8 | 0.00 | 0.00 | 0.00 | 57 | 1022.3 |
| 20260901155027 | 69 | 256 | 3.5 | 6.1 | 0.00 | 0.00 | 0.00 | 57 | 1022.3 |
| 20260901153025 | 70 | 244 | 4.3 | 12.2 | 0.00 | 0.00 | 0.00 | 54 | 1022.2 |
| 20260901150028 | 69 | 131 | 3.5 | 7.8 | 0.00 | 0.00 | 0.00 | 53 | 1022.3 |
| 20260901145024 | 71 | 254 | 3.5 | 9.6 | 0.00 | 0.00 | 0.00 | 50 | 1022.2 |
| 20260901144024 | 71 | 230 | 4.3 | 11.3 | 0.00 | 0.00 | 0.00 | 51 | 1022.2 |
| 20260901142031 | 72 | 246 | 5.2 | 10.4 | 0.00 | 0.00 | 0.00 | 51 | 1022.2 |
| 20260901141027 | 71 | 230 | 4.3 | 10.4 | 0.00 | 0.00 | 0.00 | 52 | 1022.2 |
| 20260901140026 | 71 | 252 | 6.1 | 11.3 | 0.00 | 0.00 | 0.00 | 54 | 1022.3 |
| 20260901135027 | 71 | 71 | 4.3 | 10.4 | 0.00 | 0.00 | 0.00 | 55 | 1022.3 |
| 20260901134027 | 72 | 240 | 4.3 | 9.6 | 0.00 | 0.00 | 0.00 | 53 | 1022.2 |
| 20260901133025 | 71 | 336 | 5.2 | 11.3 | 0.00 | 0.00 | 0.00 | 54 | 1022.3 |
| 20260901131025 | 71 | 171 | 4.3 | 12.2 | 0.00 | 0.03 | 0.00 | 55 | 1022.4 |
| 20260901130027 | 71 | 41 | 5.2 | 11.3 | 0.00 | 0.03 | 0.00 | 54 | 1022.5 |
| 20260901125024 | 71 | 232 | 5.2 | 12.2 | 0.00 | 0.03 | 0.00 | 56 | 1022.5 |
| 20260901124027 | 71 | 314 | 5.2 | 11.3 | 0.00 | 0.03 | 0.00 | 57 | 1022.5 |
| 20260901122025 | 70 | 242 | 4.3 | 11.3 | 0.00 | 0.03 | 0.00 | 62 | 1022.6 |
| 20260901114025 | 70 | 250 | 5.2 | 12.2 | 0.00 | 0.06 | 0.00 | 64 | 1022.6 |
| 20260901113026 | 70 | 101 | 4.3 | 12.2 | 0.00 | 0.06 | 0.00 | 63 | 1022.5 |
| 20260901111028 | 69 | 240 | 5.2 | 10.4 | 0.00 | 0.06 | 0.00 | 68 | 1022.7 |
| 20260901105024 | 69 | 198 | 4.3 | 10.4 | 0.00 | 0.06 | 0.00 | 72 | 1022.7 |
| 20260901104026 | 67 | 222 | 3.5 | 8.7 | 0.00 | 0.06 | 0.00 | 75 | 1022.8 |
| 20260901103023 | 66 | 224 | 3.5 | 7.0 | 0.00 | 0.06 | 0.00 | 76 | 1022.8 |
| 20260901102025 | 67 | 243 | 4.3 | 8.7 | 0.00 | 0.06 | 0.00 | 75 | 1022.8 |
| 20260901101027 | 68 | 213 | 3.5 | 8.7 | 0.00 | 0.06 | 0.00 | 75 | 1022.8 |
| 20260901100026 | 68 | 177 | 4.3 | 10.4 | 0.00 | 0.06 | 0.00 | 77 | 1022.9 |
| 20260901094023 | 66 | 72 | 4.3 | 10.4 | 0.00 | 0.06 | 0.00 | 80 | 1022.9 |
| 20260901093025 | 65 | 251 | 4.3 | 9.6 | 0.00 | 0.06 | 0.00 | 83 | 1022.8 |
| 20260901092025 | 64 | 234 | 5.2 | 10.4 | 0.00 | 0.06 | 0.00 | 84 | 1022.9 |
| 20260901091026 | 63 | 228 | 4.3 | 10.4 | 0.00 | 0.06 | 0.00 | 84 | 1022.9 |
| 20260901085027 | 63 | 291 | 3.5 | 9.6 | 0.00 | 0.06 | 0.00 | 86 | 1022.7 |
| 20260901083025 | 63 | 206 | 3.5 | 8.7 | 0.00 | 0.06 | 0.00 | 86 | 1022.5 |
| 20260901082023 | 63 | 229 | 5.2 | 11.3 | 0.00 | 0.06 | 0.00 | 88 | 1022.4 |
| 20260901081026 | 62 | 278 | 3.5 | 8.7 | 0.00 | 0.06 | 0.00 | 88 | 1022.4 |
| 20260901075027 | 61 | 232 | 4.3 | 9.6 | 0.00 | 0.06 | 0.00 | 90 | 1022.2 |
| 20260901070025 | 60 | 17 | 2.6 | 7.0 | 0.00 | 0.06 | 0.00 | 93 | 1022.0 |
| 20260901065025 | 59 | 195 | 2.6 | 6.1 | 0.00 | 0.06 | 0.00 | 93 | 1022.0 |
| 20260901064023 | 59 | 88 | 2.6 | 6.1 | 0.00 | 0.06 | 0.00 | 94 | 1022.0 |
| 20260901063023 | 59 | 257 | 2.6 | 7.0 | 0.00 | 0.06 | 0.00 | 94 | 1022.0 |
| 20260901062026 | 59 | 167 | 2.6 | 7.0 | 0.00 | 0.06 | 0.00 | 94 | 1022.0 |
| 20260901061024 | 59 | 353 | 2.6 | 7.0 | 0.00 | 0.06 | 0.00 | 95 | 1021.8 |
| 20260901060024 | 59 | 204 | 2.6 | 7.0 | 0.00 | 0.06 | 0.00 | 95 | 1021.7 |
| 20260901054024 | 58 | 349 | 2.6 | 7.8 | 0.00 | 0.06 | 0.00 | 96 | 1021.6 |
| 20260901053024 | 58 | 16 | 2.6 | 6.1 | 0.00 | 0.06 | 0.00 | 96 | 1021.6 |
| 20260901052022 | 58 | 176 | 2.6 | 7.0 | 0.00 | 0.06 | 0.00 | 96 | 1021.5 |
| 20260901045024 | 58 | 7 | 2.6 | 6.1 | 0.00 | 0.06 | 0.00 | 96 | 1021.4 |
| 20260901044023 | 58 | 201 | 2.6 | 7.8 | 0.00 | 0.06 | 0.00 | 96 | 1021.3 |
| 20260901043026 | 58 | 357 | 3.5 | 9.6 | 0.00 | 0.06 | 0.00 | 95 | 1021.2 |
| 20260901041025 | 58 | 302 | 2.6 | 8.7 | 0.00 | 0.06 | 0.00 | 95 | 1021.1 |
| 20260901040026 | 58 | 234 | 2.6 | 8.7 | 0.00 | 0.06 | 0.00 | 95 | 1021.0 |
| 20260901035026 | 58 | 273 | 2.6 | 7.8 | 0.00 | 0.06 | 0.00 | 95 | 1021.0 |
| 20260901034025 | 58 | 83 | 2.6 | 7.0 | 0.00 | 0.06 | 0.00 | 95 | 1021.0 |
| 20260901033025 | 59 | 241 | 2.6 | 7.0 | 0.00 | 0.06 | 0.00 | 95 | 1021.0 |
| 20260901032024 | 59 | 192 | 2.6 | 7.0 | 0.00 | 0.06 | 0.00 | 95 | 1020.9 |
| 20260901031025 | 58 | 180 | 2.6 | 7.8 | 0.00 | 0.06 | 0.00 | 95 | 1020.9 |
| 20260901030024 | 58 | 99 | 2.6 | 6.1 | 0.00 | 0.06 | 0.00 | 95 | 1020.9 |
| 20260901025025 | 58 | 85 | 3.5 | 8.7 | 0.00 | 0.06 | 0.00 | 96 | 1020.8 |
| 20260901024027 | 58 | 226 | 2.6 | 7.0 | 0.00 | 0.06 | 0.00 | 96 | 1020.9 |
| 20260901023024 | 57 | 183 | 2.6 | 6.1 | 0.00 | 0.06 | 0.00 | 96 | 1020.9 |
| 20260901022025 | 57 | 180 | 2.6 | 5.2 | 0.00 | 0.06 | 0.00 | 96 | 1020.9 |
| 20260901021023 | 57 | 191 | 2.6 | 5.2 | 0.00 | 0.06 | 0.00 | 96 | 1020.9 |
| 20260901020025 | 57 | 176 | 1.7 | 6.1 | 0.00 | 0.06 | 0.00 | 95 | 1020.9 |